Location: Bédeille
(43.0872°N, 1.1041°E)
Time: 12:55:09
(UTC+00:00)

Cosmos 2333 Rocket - Pass Details

Date: 03 February 2023
Orbit: 838 x 864 km, 70.8° (Epoch: 20 March)

Event Time Altitude Azimuth Distance (km) Brightness Sun altitude
Rises 18:09:54 0° 178° (S) 3,374 5.5 -11.2°
Reaches altitude 10° 18:12:29 10° 170° (S) 2,446 4.6 -11.7°
Maximum altitude 18:17:34 36° 105° (ESE) 1,305 2.7 -12.6°
Enters shadow 18:22:24 11° 42° (NE) 2,377 4.1 -13.5°
